TimeMST,TemperatureF,Dew PointF,Humidity,Sea Level PressureIn,VisibilityMPH,Wind Direction,Wind SpeedMPH,Gust SpeedMPH,PrecipitationIn,Events,Conditions,WindDirDegrees,DateUTC
12:53 AM,10.4,6.8,85,29.84,-9999.0,West,5.8,-,N/A,,Clear,260,2013-02-22 07:53:00
1:53 AM,12.9,8.1,81,29.99,-9999.0,West,6.9,-,N/A,,Clear,260,2013-02-22 08:53:00
2:53 AM,12.9,9.0,84,29.98,-9999.0,WSW,8.1,-,N/A,,Clear,240,2013-02-22 09:53:00
3:53 AM,16.0,10.9,81,29.97,-9999.0,WSW,10.4,-,N/A,,Mostly Cloudy,240,2013-02-22 10:53:00
4:53 AM,17.1,12.0,81,29.98,-9999.0,WSW,6.9,-,N/A,,Overcast,240,2013-02-22 11:53:00
5:53 AM,14.0,10.0,84,30.00,10.0,WSW,6.9,-,N/A,,Mostly Cloudy,250,2013-02-22 12:53:00
6:53 AM,12.9,8.1,81,30.04,10.0,Calm,Calm,-,N/A,,Clear,0,2013-02-22 13:53:00
7:53 AM,17.1,12.9,84,30.04,10.0,WSW,9.2,-,N/A,,Clear,250,2013-02-22 14:53:00
8:53 AM,23.0,17.1,78,30.04,10.0,SW,12.7,-,N/A,,Clear,230,2013-02-22 15:53:00
9:53 AM,25.0,14.0,63,30.04,10.0,SW,13.8,-,N/A,,Clear,220,2013-02-22 16:53:00
10:53 AM,27.0,12.0,53,30.04,10.0,SW,11.5,-,N/A,,Clear,230,2013-02-22 17:53:00
11:53 AM,30.9,10.9,43,30.01,10.0,SW,15.0,23.0,N/A,,Clear,220,2013-02-22 18:53:00
12:53 PM,32.0,10.0,40,29.99,10.0,SSW,17.3,25.3,N/A,,Mostly Cloudy,200,2013-02-22 19:53:00
1:53 PM,36.0,8.1,31,29.94,10.0,West,12.7,20.7,N/A,,Overcast,260,2013-02-22 20:53:00
2:53 PM,35.1,3.9,27,29.92,10.0,WSW,18.4,-,N/A,,Partly Cloudy,250,2013-02-22 21:53:00
3:53 PM,33.1,3.0,28,29.92,10.0,SW,13.8,-,N/A,,Clear,230,2013-02-22 22:53:00
4:53 PM,30.9,3.0,31,29.92,10.0,West,16.1,23.0,N/A,,Clear,260,2013-02-22 23:53:00
5:53 PM,26.1,7.0,44,29.94,10.0,SW,11.5,-,N/A,,Clear,230,2013-02-23 00:53:00
6:53 PM,23.0,9.0,55,29.94,10.0,SW,10.4,-,N/A,,Clear,230,2013-02-23 01:53:00
7:53 PM,23.0,9.0,55,29.91,10.0,SSW,13.8,-,N/A,,Clear,210,2013-02-23 02:53:00
8:53 PM,24.1,8.1,51,29.86,10.0,SW,16.1,-,N/A,,Clear,220,2013-02-23 03:53:00
9:53 PM,23.0,8.1,53,29.85,-9999.0,SW,11.5,-,N/A,,Clear,220,2013-02-23 04:53:00
10:53 PM,23.0,9.0,55,29.84,-9999.0,SW,19.6,26.5,N/A,,Clear,220,2013-02-23 05:53:00
11:53 PM,21.9,9.0,58,29.81,-9999.0,SW,18.4,-,N/A,,Clear,230,2013-02-23 06:53:00